Location: Lane
(33.5226°N, 79.8788°W)
Time: 12:51:17
(UTC+00:00)

Tiros 1 despin weight - Pass Details

Date: 10 October 2022
Orbit: 590 x 637 km, 48.2° (Epoch: 25 November)

Event Time Altitude Azimuth Distance (km) Brightness Sun altitude
Rises 18:22:37 0° 252° (WSW) 2,809 ? 45.8°
Reaches altitude 10° 18:25:01 10° 261° (W) 1,914 ? 45.5°
Maximum altitude 18:29:06 37° 329° (NNW) 923 ? 45.1°
Drops below altitude 10° 18:33:14 10° 38° (NE) 1,938 ? 44.7°
Sets 18:35:41 0° 47° (NE) 2,851 ? 44.4°
